Location: *
(46.0770°N, 1.6444°E)
Time: 23:42:50
(UTC+00:00)

Cosmos 1939 Rocket - Pass Details

Date: 16 September 2019
Orbit: 534 x 583 km, 97.4° (Epoch: 15 October)

Event Time Altitude Azimuth Distance (km) Brightness Sun altitude
Rises 18:43:57 0° 165° (SSE) 2,683 6.1 -7.8°
Reaches altitude 10° 18:46:04 10° 165° (SSE) 1,792 5.2 -8.1°
Maximum altitude 18:49:56 87° 76° (ENE) 543 2.7 -8.8°
Drops below altitude 10° 18:53:49 10° 348° (NNW) 1,799 5.8 -9.4°
Sets 18:55:56 0° 348° (NNW) 2,695 6.7 -9.8°
